National Weather Service Hourly Weather Roundup
NOAA NWS Hourly Roundups by Site
NOAA NWS Hourly Roundups by Site
Regional Weather Roundup for Sacramento, CA

To Select Another Site Choose from List

Select Site:  

000
ASUS46 KSTO 181215
RWRCA

NORTHERN AND CENTRAL CA REGIONAL WEATHER ROUNDUP
NATIONAL WEATHER SERVICE SACRAMENTO CA
400 AM PST FRI JAN 18 2019

NOTE: FAIR INDICATES FEW OR NO CLOUDS BELOW 12,000 FEET WITH NO
SIGNIFICANT WEATHER AND/OR OBSTRUCTIONS TO VISIBILITY.

CAZ001-003-181300-
NORTHWEST AREA

CITY           SKY/WX    TMP DP  RH WIND       PRES   REMARKS
CRESCENT CITY  CLOUDY    52  43  71 SE16      30.18F
UKIAH          CLOUDY    44  42  93 CALM      30.28S
$$

CAZ006-505>513-181300-
BAY AREA

CITY           SKY/WX    TMP DP  RH WIND       PRES   REMARKS
SANTA ROSA     CLOUDY    47  46  97 NW3       30.27F
SAN RAFAEL     N/A      MM  MM  MM MISG
NAPA           CLOUDY    50  48  93 N3        30.28F
CONCORD        CLOUDY    53  48  83 CALM      30.29S
OAKLAND CITY   N/A       53  MM  MM MISG
OAKLAND        MOCLDY    52  49  89 CALM      30.29F
SAN FRAN CITY  N/A       54  MM  84 MISG
SAN FRAN ARPT  CLOUDY    58  50  75 CALM      30.27F
LIVERMORE      CLOUDY    50  47  89 CALM      30.28S
HAYWARD        CLOUDY    53  49  86 CALM      30.28F
REDWOOD CITY   N/A       50  MM  95 MISG
MOFFETT ARPT   CLOUDY    53  49  86 CALM      30.29S
SAN JOSE ARPT  CLOUDY    51  48  89 CALM      30.29S
$$
CAZ034-037-514>518-181300-
CENTRAL COAST

CITY           SKY/WX    TMP DP  RH WIND       PRES   REMARKS
WATSONVILLE    MOCLDY    51  50  96 CALM      30.29F
SALINAS        MOCLDY    51  48  89 CALM      30.28F
MONTEREY       CLOUDY    52  48  86 E6        30.28F
SAN LUIS OBISP FOG       51  51 100 CALM      30.26S VSB 1/4
SANTA MARIA    FOG       53  52  96 CALM      30.25F VSB 1/2
$$
CAZ015-016-181300-
NORTHERN SACRAMENTO VALLEY

CITY           SKY/WX    TMP DP  RH WIND       PRES   REMARKS
RED BLUFF      CLOUDY    42  39  89 NW5       30.29R
OROVILLE       CLOUDY    52  47  83 SE6       30.30R
$$
CAZ016>018-181300-
SOUTHERN SACRAMENTO VALLEY

CITY           SKY/WX    TMP DP  RH WIND       PRES   REMARKS
AUBURN         CLOUDY    48  46  93 SE6       30.28F
BEALE AFB      CLOUDY    51  48  91 SE6       30.27F
LINCOLN        FAIR      52  46  82 SE3       30.28F
MARYSVILLE     CLOUDY    51  48  89 SE5       30.29F
SAC INTL ARPT  CLOUDY    51  48  89 SE7       30.29S
MATHER AIRPORT MOCLDY    50  48  93 CALM      30.29
DOWNTOWN SAC   N/A       51  MM  MM MISG
SAC EXEC ARPT  CLOUDY    50  48  93 CALM      30.29F
VACAVILLE      CLOUDY    51  50  96 E5        30.30S
TRAVIS AFB     CLOUDY    50  48  91 CALM      30.29S
$$
CAZ019>021-181300-
SAN JOAQUIN VALLEY

CITY           SKY/WX    TMP DP  RH WIND       PRES   REMARKS
STOCKTON       CLOUDY    51  49  92 CALM      30.29S
MODESTO        CLOUDY    51  50  96 E3        30.28S
MERCED         CLOUDY    52  50  93 CALM      30.27F
LEMOORE        MOCLDY    52  51  97 NW7       30.26F FOG
FRESNO         CLOUDY    53  50  89 NW3       30.27F
HANFORD        PTCLDY    51  50  96 NW5       30.27F
PORTERVILLE    CLOUDY    49  48  97 CALM      30.26F
BAKERSFIELD    CLEAR     49  45  86 CALM      30.25S
$$
CAZ011-012-071-181300-
NORTHERN MOUNTAINS

CITY           SKY/WX    TMP DP  RH WIND       PRES   REMARKS
YREKA          MOCLDY    33  31  92 N5        30.22R WCI  29
ALTURAS        CLOUDY    30  29  96 CALM      30.20S
$$
CAZ011-012-071-181300-
SIERRA NEVADA MTNS

CITY           SKY/WX    TMP DP  RH WIND       PRES   REMARKS
BLUE CANYON    FOG       32  31  96 S8        30.25F VSB 1/4 WCI  25
TRUCKEE        CLOUDY    30  28  93 CALM      30.22R
TAHOE VLY ARPT MOCLDY    32  28  85 SW8       30.22R WCI  25
MAMMOTH LAKES  FAIR      34  20  57 NW10G18   30.18R WCI  26
$$


 

View Past Reports for Sacramento, CA.

Products Courtesy of NOAA-NWS
NWS Information Parsing Script by Ken True at Saratoga Weather - Script by SE Lincoln Weather.

powered by Cumulus v1.9.3 (1059)
Ambient Weather VWS v14.00
Top Contact Website Map Copyright © 2007 - 2019 Foresthillweather.com Never base important decisions on this or any weather information obtained from the Internet